OCO 2

Last updated on Thu Jul 03 2025 00:03:31 GMT+0000 (Coordinated Universal Time)

1 40059U 14035A 25183.55840344 .00000341 00000+0 85687-4 0 9998 2 40059 98.2016 124.8575 0001435 73.7927 286.3429 14.57143849585138
UTC large
Height (km)
Speed (km/s)
/
Latitude / Longitude
Inclination (degrees)
Orbital Period (minutes)
Azimuth
Elevation
Range (km)
Doppler Factor

Next 0 passes for location: London (51.5072 / 0.1276)

Sorry there are no passes over London.